[[{"header":{"parameterUnit":"m.s-1","parameterCategory":1,"la1":30.2991,"la2":30.254,"lo1":-89.0895,"lo2":-89.0444,"dy":0.0017,"dx":0.0017,"nx":28,"ny":28,"refTime":"2025-03-06T09:00:00:Z","depth":0,"parameterNumber":2,"parameterNumberName":"U-component_of_WINDS"},"data":[0,0,0,0,0,0,0,0,0,0,0,0,0,0,0,0,0,0,0,0,0,0,0,0,0,0,0,0,0,0,0,0,0,0,0,0,0,0,0,0,0,0,0,0,0,0,0,0,0,0,0,0,0,0,0,0,0,0,-1.4569,-1.457,0,-1.4664,-1.4665,-1.4667,-1.4674,-1.4673,-1.4671,-1.467,-1.4771,-1.4775,-1.4778,0,0,0,0,0,0,0,0,0,0,0,0,0,-1.4396,-1.4399,-1.4569,-1.457,-1.4571,-1.4664,-1.4665,-1.4667,-1.4674,-1.4673,-1.4671,-1.467,-1.477,-1.4774,-1.4779,0,0,0,0,0,0,0,0,0,0,0,0,0,-1.4479,-1.44,-1.4569,-1.4586,-1.4588,-1.4664,-1.4666,-1.4667,-1.4674,-1.4672,-1.4671,-1.4669,-1.4769,-1.4774,-1.4779,-1.4845,0,0,-1.4796,-1.4798,0,0,0,0,0,0,0,0,-1.4475,-1.4486,-1.4582,-1.4585,-1.4588,-1.4655,-1.4642,-1.4727,-1.4674,-1.4642,-1.467,-1.4669,-1.4734,-1.4742,-1.4764,-1.485,-1.4854,-1.4797,-1.48,-1.4802,-1.4804,0,0,0,0,0,0,0,-1.4469,-1.4482,-1.4607,-1.4584,-1.4587,-1.459,-1.46,-1.4658,-1.4696,-1.4644,-1.4645,-1.4656,-1.4735,-1.4759,-1.4766,-1.4856,-1.4796,-1.4801,-1.4805,-1.4807,-1.5002,-1.5004,0,0,0,0,0,0,-1.4459,-1.4477,-1.4604,-1.461,-1.4526,-1.4594,-1.4606,-1.4635,-1.4695,-1.4703,-1.4657,-1.4656,-1.475,-1.476,-1.477,-1.4852,-1.4802,-1.4807,-1.4811,-1.5,-1.5002,-1.5004,0,0,0,0,0,0,-1.4456,-1.4471,-1.46,-1.4544,-1.456,-1.4599,-1.4632,-1.4638,-1.4661,-1.4705,-1.4712,-1.4674,-1.4749,-1.4762,-1.4826,-1.4855,-1.481,-1.4815,-1.4998,-1.5001,-1.5003,-1.5015,0,0,0,0,0,0,-1.4451,-1.4469,-1.4494,-1.4544,-1.4563,-1.4654,-1.4634,-1.4641,-1.467,-1.467,-1.4722,-1.4729,-1.4749,-1.4818,-1.4832,-1.4862,-1.4819,-1.4995,-1.4999,-1.5002,-1.5012,-1.5018,-1.5023,0,0,0,0,0,-1.4445,-1.4494,-1.4495,-1.451,-1.4594,-1.4655,-1.4667,-1.4687,-1.4672,-1.4698,-1.4726,-1.4728,-1.485,-1.4825,-1.484,-1.4872,-1.4994,-1.4998,-1.5002,-1.501,-1.5017,-1.5023,0,0,0,0,0,0,-1.4447,-1.4501,-1.4503,-1.4569,-1.4608,-1.4656,-1.4689,-1.4693,-1.4737,-1.4735,-1.4759,-1.4771,-1.4835,-1.486,-1.4831,-1.494,-1.492,-1.4928,-1.4921,-1.4928,-1.4933,-1.4926,-1.4824,0,0,0,0,0,-1.4455,-1.4499,-1.4544,-1.4599,-1.4618,-1.465,-1.4678,-1.469,-1.4731,-1.4748,-1.478,-1.4821,-1.4869,-1.49,-1.4946,-1.5016,-1.5028,-1.5046,-1.5051,-1.5055,-1.5062,-1.5102,-1.511,-1.5018,-1.5018,-1.5018,0,0,-1.4473,-1.4507,-1.4534,-1.46,-1.4631,-1.4677,-1.4664,-1.4713,-1.4748,-1.4755,-1.4818,-1.4844,-1.4891,-1.4959,-1.499,-1.4982,-1.509,-1.5061,-1.5064,-1.5068,-1.5107,-1.5116,-1.5123,-1.5021,-1.502,-1.502,0,0,-1.4528,-1.4558,-1.4608,-1.4639,-1.4686,-1.4708,-1.4719,-1.4768,-1.4785,-1.4848,-1.4855,-1.4897,-1.4979,-1.5012,-1.504,-1.5109,-1.5113,-1.5124,-1.5151,-1.519,-1.5197,-1.5204,-1.523,-1.5238,-1.513,-1.513,-1.513,0,-1.4544,-1.4613,-1.4633,-1.4682,-1.4712,-1.4719,-1.477,-1.48,-1.486,-1.4881,-1.487,-1.4973,-1.5005,-1.5082,-1.5098,-1.512,-1.5136,-1.5118,-1.5194,-1.5201,-1.5208,-1.5233,-1.5242,-1.5131,-1.5131,-1.5131,-1.5131,0,-1.4631,-1.4679,-1.4713,-1.477,-1.4804,-1.4854,-1.4882,-1.4914,-1.4923,-1.4946,-1.5011,-1.505,-1.5105,-1.5124,-1.5134,-1.5202,-1.5195,-1.5189,-1.517,-1.5217,-1.5241,-1.5251,-1.5132,-1.5132,-1.5132,-1.5131,0,0,-1.4691,-1.4759,-1.4771,-1.4797,-1.485,-1.4888,-1.4939,-1.4991,-1.5019,-1.506,-1.5104,-1.5173,-1.5168,-1.5199,-1.5214,-1.5247,-1.5301,-1.5238,-1.5239,-1.5249,-1.538,-1.5384,-1.5395,-1.5303,-1.5305,-1.5307,-1.5376,0,-1.4754,-1.4843,-1.4862,-1.494,-1.4985,-1.4994,-1.5038,-1.5076,-1.5099,-1.5141,-1.5167,-1.5216,-1.5205,-1.5224,-1.5258,-1.5287,-1.5328,-1.5282,-1.5346,-1.5348,-1.5334,-1.5407,-1.5412,-1.5475,-1.5385,-1.5387,-1.5388,0,-1.4838,-1.4881,-1.4963,-1.501,-1.503,-1.5069,-1.5119,-1.516,-1.5203,-1.5218,-1.5253,-1.5264,-1.5318,-1.5296,-1.5372,-1.5341,-1.5368,-1.5386,-1.5389,-1.5397,-1.5371,-1.5417,-1.5496,-1.5506,-1.5403,-1.5401,-1.54,0,-1.4875,-1.4953,-1.5012,-1.5034,-1.5091,-1.5119,-1.5144,-1.5186,-1.5216,-1.5261,-1.5281,-1.5331,-1.5359,-1.5399,-1.5423,-1.5404,-1.5498,-1.5477,-1.5512,-1.5512,-1.5532,-1.5531,-1.5617,-1.5548,-1.5548,-1.5548,-1.5548,0,-1.4943,-1.4993,-1.5029,-1.5066,-1.5123,-1.5145,-1.5201,-1.5226,-1.5264,-1.5306,-1.5317,-1.5357,-1.5386,-1.5431,-1.545,-1.5511,-1.5523,-1.5538,-1.5542,-1.5537,-1.5535,-1.5556,-1.5552,-1.555,-1.555,-1.5549,-1.5549,0,-1.4994,-1.502,-1.5085,-1.5133,-1.5147,-1.5187,-1.5228,-1.5265,-1.5288,-1.5342,-1.5356,-1.5393,-1.5445,-1.5474,-1.554,-1.5553,-1.5622,-1.5624,-1.5607,-1.5609,-1.5642,-1.5639,-1.5746,-1.5761,-1.5681,-1.5682,-1.5683,0,-1.5036,-1.5075,-1.5127,-1.5155,-1.5181,-1.5227,-1.5258,-1.5282,-1.5314,-1.5367,-1.5398,-1.5451,-1.5495,-1.5579,-1.5613,-1.5664,-1.5668,-1.5701,-1.5675,-1.5669,-1.5669,-1.5667,-1.5671,-1.5706,-1.5707,-1.5707,-1.5708,0,-1.5108,-1.5119,-1.5163,-1.5212,-1.5248,-1.5288,-1.5328,-1.5351,-1.5381,-1.5417,-1.5471,-1.5505,-1.5573,-1.5626,-1.568,-1.5707,-1.5713,-1.5716,-1.5727,-1.5722,-1.5711,-1.5718,-1.562,-1.5713,-1.5713,-1.5712,-1.5712,-1.5712,-1.5157,-1.5192,-1.5234,-1.5283,-1.5315,-1.5351,-1.5388,-1.5415,-1.546,-1.5516,-1.5528,-1.5585,-1.5629,-1.5702,-1.573,-1.5776,-1.577,-1.5785,-1.5789,-1.5793,-1.5795,-1.5703,-1.5786,-1.5786,-1.5786,-1.5786,-1.5786,0,-1.523,-1.5258,-1.5302,-1.5357,-1.5395,-1.5396,-1.544,-1.5473,-1.5523,-1.5562,-1.5605,-1.5668,-1.5719,-1.5757,-1.581,-1.584,-1.5844,-1.5853,-1.5851,-1.5858,-1.5798,-1.5783,-1.5849,-1.5849,-1.5849,-1.5848,-1.5848,-1.5848,-1.5273,-1.5333,-1.5349,-1.5425,-1.5452,-1.5507,-1.5532,-1.5567,-1.5599,-1.5667,-1.571,-1.5733,-1.5773,-1.5829,-1.5877,-1.5887,-1.5906,-1.5915,-1.5925,-1.5869,-1.5862,-1.5856,-1.5842,-1.5919,-1.5919,-1.5982,-1.5982,-1.5983]},{"header":{"parameterUnit":"m.s-1","parameterCategory":1,"la1":30.2991,"la2":30.254,"lo1":-89.0895,"lo2":-89.0444,"dy":0.0017,"dx":0.0017,"nx":28,"ny":28,"refTime":"2025-03-06T09:00:00:Z","depth":0,"parameterNumber":3,"parameterNumberName":"V-component_of_WINDS"},"data":[0,0,0,0,0,0,0,0,0,0,0,0,0,0,0,0,0,0,0,0,0,0,0,0,0,0,0,0,0,0,0,0,0,0,0,0,0,0,0,0,0,0,0,0,0,0,0,0,0,0,0,0,0,0,0,0,0,0,4.0635,4.0636,0,4.0676,4.0677,4.0677,4.0613,4.0611,4.0609,4.0607,4.0646,4.0649,4.0652,0,0,0,0,0,0,0,0,0,0,0,0,0,4.0497,4.05,4.0635,4.0636,4.0636,4.0676,4.0677,4.0677,4.0614,4.0611,4.0608,4.0606,4.0645,4.0649,4.0653,0,0,0,0,0,0,0,0,0,0,0,0,0,4.0549,4.0501,4.0635,4.0609,4.0607,4.0676,4.0677,4.0677,4.0614,4.0611,4.0608,4.0604,4.0644,4.0649,4.0653,4.0748,0,0,4.0667,4.0669,0,0,0,0,0,0,0,0,4.0547,4.0555,4.0612,4.0611,4.0609,4.0636,4.0642,4.0701,4.0615,4.0612,4.0607,4.0603,4.0645,4.065,4.0665,4.075,4.0752,4.0668,4.0671,4.0673,4.0674,0,0,0,0,0,0,0,4.0543,4.0552,4.0651,4.0613,4.0611,4.0594,4.0598,4.0653,4.0646,4.0612,4.0607,4.0613,4.0644,4.066,4.0665,4.0752,4.0668,4.0672,4.0675,4.0677,4.0914,4.0918,0,0,0,0,0,0,4.0543,4.055,4.065,4.0652,4.0569,4.0599,4.0604,4.0631,4.0646,4.0645,4.0616,4.061,4.0654,4.066,4.0666,4.0776,4.0673,4.0677,4.068,4.0911,4.0915,4.0919,0,0,0,0,0,0,4.054,4.0553,4.0648,4.06,4.0611,4.0605,4.0636,4.0633,4.065,4.0649,4.0647,4.0634,4.0652,4.066,4.0728,4.0776,4.0679,4.0683,4.0907,4.0912,4.0917,4.0998,0,0,0,0,0,0,4.0537,4.0552,4.0589,4.0601,4.0614,4.0711,4.0639,4.0637,4.0658,4.0651,4.0666,4.0665,4.065,4.0721,4.0732,4.0781,4.0687,4.0902,4.0909,4.0915,4.0991,4.1005,4.1018,0,0,0,0,0,4.0532,4.061,4.0591,4.0604,4.066,4.0714,4.072,4.0702,4.0663,4.0699,4.0698,4.0664,4.077,4.0729,4.0741,4.0792,4.0899,4.0907,4.0915,4.0985,4.1002,4.1017,0,0,0,0,0,0,4.0604,4.0611,4.0591,4.0676,4.0694,4.0703,4.0748,4.0722,4.0752,4.0743,4.0719,4.0723,4.0795,4.0801,4.0754,4.0883,4.0828,4.0838,4.0876,4.0893,4.0906,4.0902,4.0691,0,0,0,0,0,4.0629,4.0673,4.0677,4.0752,4.0762,4.0754,4.0776,4.0761,4.0779,4.0786,4.079,4.0808,4.0845,4.087,4.0904,4.0992,4.0992,4.1033,4.1046,4.1057,4.1066,4.111,4.1127,4.0945,4.0945,4.0945,0,0,4.0683,4.0693,4.0722,4.0766,4.0779,4.0823,4.0761,4.0811,4.0843,4.0793,4.0857,4.0861,4.0879,4.0957,4.0991,4.0964,4.1117,4.1067,4.1076,4.1079,4.112,4.1137,4.1152,4.095,4.0949,4.0949,0,0,4.0802,4.0815,4.0877,4.0891,4.0911,4.0905,4.092,4.0932,4.0932,4.0997,4.096,4.0997,4.1062,4.1075,4.1091,4.1214,4.1183,4.1226,4.1295,4.1338,4.1352,4.1365,4.1406,4.1421,4.1235,4.1235,4.1236,0,4.0866,4.0932,4.0912,4.0964,4.0984,4.0942,4.1003,4.1017,4.1047,4.1061,4.103,4.1109,4.1119,4.1197,4.1227,4.1242,4.1256,4.1223,4.1352,4.1365,4.1376,4.1415,4.1431,4.124,4.124,4.1239,4.1239,0,4.1007,4.1054,4.1101,4.1131,4.1156,4.1213,4.12,4.1228,4.121,4.1206,4.127,4.128,4.1314,4.1332,4.1316,4.1408,4.139,4.1357,4.13,4.1398,4.1434,4.1449,4.1247,4.1245,4.1244,4.1243,0,0,4.1172,4.119,4.1208,4.1219,4.1238,4.1272,4.1326,4.136,4.1383,4.1405,4.1447,4.1503,4.1471,4.1489,4.1473,4.1511,4.1604,4.1472,4.1472,4.1494,4.1704,4.1727,4.1745,4.1585,4.1588,4.159,4.1701,0,4.1289,4.1382,4.1365,4.1455,4.1496,4.1456,4.1502,4.1518,4.1516,4.1549,4.1546,4.1585,4.1541,4.1551,4.1588,4.1586,4.1646,4.1578,4.1622,4.1624,4.1616,4.1764,4.179,4.1894,4.1715,4.1718,4.172,0,4.1437,4.1464,4.1558,4.1568,4.1584,4.1627,4.1655,4.1688,4.1704,4.1699,4.1719,4.1695,4.1747,4.1691,4.176,4.1714,4.1732,4.1733,4.1737,4.1738,4.1676,4.1767,4.1927,4.1942,4.1742,4.174,4.1739,0,4.1544,4.1605,4.1668,4.168,4.1694,4.1723,4.173,4.1743,4.1764,4.1789,4.1801,4.1832,4.1848,4.1871,4.1856,4.1818,4.1927,4.1871,4.1922,4.1923,4.1945,4.1943,4.2108,4.1961,4.1961,4.1961,4.196,0,4.1675,4.1733,4.1716,4.1754,4.1817,4.1797,4.186,4.1862,4.1874,4.1911,4.1879,4.1914,4.1893,4.1926,4.1915,4.1972,4.198,4.1976,4.1972,4.1978,4.1978,4.1987,4.1978,4.1965,4.1964,4.1963,4.1962,0,4.1804,4.1796,4.1861,4.1869,4.1872,4.1918,4.1924,4.1959,4.1954,4.2001,4.2011,4.2003,4.204,4.2028,4.2068,4.206,4.2132,4.212,4.2127,4.2123,4.2174,4.2168,4.2348,4.2369,4.2211,4.2213,4.2214,0,4.1887,4.1931,4.1943,4.1965,4.1974,4.2012,4.2032,4.2014,4.2036,4.2057,4.2089,4.2123,4.215,4.221,4.2208,4.2237,4.2224,4.2285,4.2228,4.2232,4.2221,4.2218,4.2221,4.2295,4.2297,4.2299,4.23,0,4.2033,4.2026,4.2058,4.2087,4.2113,4.2135,4.2154,4.2175,4.2157,4.2184,4.2221,4.2242,4.2282,4.2315,4.2342,4.2348,4.232,4.2318,4.2331,4.2336,4.2337,4.2334,4.2154,4.2313,4.2312,4.2311,4.231,4.231,4.214,4.2176,4.2189,4.2225,4.2237,4.2255,4.2288,4.2287,4.2318,4.235,4.2337,4.2379,4.2392,4.2425,4.2434,4.2466,4.2443,4.2462,4.2467,4.2471,4.2476,4.2334,4.2472,4.2471,4.2471,4.2471,4.247,0,4.2282,4.2289,4.2322,4.2349,4.2376,4.2349,4.2369,4.2393,4.2431,4.2445,4.2472,4.2513,4.2546,4.2545,4.2575,4.26,4.2588,4.2608,4.2605,4.2606,4.2497,4.2482,4.2617,4.2617,4.2617,4.2617,4.2617,4.2617,4.2359,4.2418,4.2412,4.2475,4.2481,4.2523,4.2536,4.2552,4.2563,4.2611,4.2638,4.2638,4.2645,4.2675,4.2702,4.2701,4.2712,4.2737,4.2731,4.2629,4.2614,4.26,4.2585,4.274,4.274,4.2836,4.2837,4.2838]}]]